This demonstration page uses our WeatherBlox Daily Observations layout. Learn more.

Hourly Observations for August 13, 2020

Temp ( °F °C ) Dew Point ( °F °C ) Humidity (%) Winds ( mph kmh ) Pressure ( in mb ) Visibility ( mi km ) Precip ( " mm )
12:15 am 00:15 Clear 71 21.6 67 19.7 89 89 SSE 5 7 29.9 1012 10 16.0934 0 0
12:35 am 00:35 Clear 71 21.7 68 20 90 90 SSE 6 9 29.89 1012 10 16.0934 0 0
12:55 am 00:55 Clear 71 21.5 68 19.9 91 91 SSE 8 13 29.89 1012 10 16.0934 0 0
1:15 am 01:15 Clear 71 21.4 68 20 92 92 SE 3 6 29.89 1012 10 16.0934 0 0
1:35 am 01:35 Clear 71 21.4 68 20 92 92 SE 7 11 29.88 1012 10 16.0934 0 0
1:55 am 01:55 Clear 70 21.1 68 20 93 93 SE 6 9 29.88 1012 10 16.0934 0 0
2:15 am 02:15 Clear 70 21.2 68 20 93 93 SE 5 7 29.89 1012 10 16.0934 0 0
2:35 am 02:35 Clear 70 20.9 67 19.7 93 93 Calm 29.89 1012 10 16.0934 0 0
2:55 am 02:55 Clear 68 20 67 19.2 95 95 W 7 11 29.94 1014 10 16.0934 0 0
3:15 am 03:15 Mostly Cloudy 69 20.7 68 19.9 95 95 W 6 9 29.95 1014 10 16.0934 0 0
3:35 am 03:35 Mostly Cloudy 70 21.2 68 20.1 93 93 SW 5 7 29.92 1013 10 16.0934 0 0
3:55 am 03:55 Partly Cloudy 70 21.1 68 20 93 93 S 6 9 29.89 1012 10 16.0934 0 0
4:15 am 04:15 Clear 69 20.5 67 19.5 94 94 SSE 6 9 29.88 1012 10 16.0934 0 0
4:35 am 04:35 Clear 70 21.1 68 20 93 93 SE 8 13 29.85 1011 10 16.0934 0 0
4:55 am 04:55 Clear 70 21 68 20 94 94 ESE 13 20 29.83 1010 10 16.0934 0 0
5:15 am 05:15 Clear 69 20.5 67 19.7 95 95 ESE 15 24 29.82 1010 7 11.26538 0 0
5:35 am 05:35 Clear 69 20.5 67 19.7 95 95 SE 10 17 29.83 1010 7 11.26538 0 0
5:55 am 05:55 Mostly Cloudy 69 20.5 67 19.7 95 95 SSE 3 6 29.85 1011 7 11.26538 0 0
6:15 am 06:15 Partly Cloudy 68 20.1 67 19.5 96 96 SE 3 6 29.85 1011 7 11.26538 0 0
6:35 am 06:35 Partly Cloudy 67 19.6 66 19.1 97 97 Calm 29.88 1012 7 11.26538 0 0
6:55 am 06:55 Partly Cloudy with Mist and Fog 66 19.1 65 18.6 97 97 Calm 29.88 1012 4 6.43736 0 0
7:15 am 07:15 Partly Cloudy with Mist and Fog 65 18.6 65 18.2 98 98 WNW 6 9 29.91 1013 3 4.82802 0 0
7:35 am 07:35 Mostly Cloudy with Mist and Fog 67 19.4 66 19 98 98 Calm 29.91 1013 4 6.43736 0 0
7:55 am 07:55 Cloudy with Mist and Fog 69 20.5 68 19.9 96 96 Calm 29.91 1013 5 8.0467 0 0
8:15 am 08:15 Cloudy 71 21.5 69 20.5 94 94 S 3 6 29.9 1013 7 11.26538 0 0
8:35 am 08:35 Cloudy 72 22.1 70 21 94 94 S 6 9 29.89 1012 7 11.26538 0 0
8:55 am 08:55 Cloudy with Mist and Fog 72 22.4 70 21.2 93 93 S 6 9 29.9 1013 5 8.0467 0 0
9:15 am 09:15 Cloudy with Mist and Fog 73 22.5 70 21.3 93 93 S 6 9 29.9 1013 5 8.0467 0 0
9:35 am 09:35 Cloudy with Mist and Fog 73 23 71 21.5 91 91 S 8 13 29.9 1012 5 8.0467 0 0
9:55 am 09:55 Cloudy 74 23.5 71 21.8 90 90 S 8 13 29.89 1012 7 11.26538 0 0
10:15 am 10:15 Cloudy 76 24.2 71 21.9 87 87 S 9 15 29.9 1012 10 16.0934 0 0
10:35 am 10:35 Cloudy 76 24.6 72 22 86 86 SSE 10 17 29.89 1012 7 11.26538 0 0
10:55 am 10:55 Cloudy 76 24.5 72 22 86 86 S 10 17 29.9 1013 10 16.0934 0 0
11:15 am 11:15 Cloudy 77 24.9 72 22.1 85 85 SSE 12 19 29.9 1013 10 16.0934 0 0
11:35 am 11:35 Cloudy 77 25 72 22 83 83 SSE 10 17 29.89 1012 7 11.26538 0 0
11:55 am 11:55 Cloudy 80 26.4 72 22 77 77 SSE 9 15 29.88 1012 10 16.0934 0 0
12:15 pm 12:15 Cloudy 81 27.1 72 22 74 74 S 13 20 29.87 1012 10 16.0934 0 0
12:35 pm 12:35 Cloudy 81 27.3 71 21.7 72 72 SSE 15 24 29.86 1011 10 16.0934 0 0
12:55 pm 12:55 Cloudy 81 27.3 72 22.1 73 73 SSE 13 20 29.86 1011 10 16.0934 0 0
1:15 pm 13:15 Cloudy 82 27.7 71 21.9 71 71 SSW 9 15 29.85 1011 10 16.0934 0 0
1:35 pm 13:35 Cloudy 82 27.7 71 21.7 70 70 S 14 22 29.84 1010 10 16.0934 0 0
1:55 pm 13:55 Hazy 85 29.3 71 21.5 63 63 S 16 26 29.82 1010 5 8.0467 0 0
2:15 pm 14:15 Mostly Cloudy with Haze 86 30 71 21.6 61 61 SSW 15 24 29.81 1009 0.75 1.207005 0 0
2:35 pm 14:35 Hazy 87 30.3 71 21.7 60 60 SSW 14 22 29.8 1009 3 4.82802 0 0
2:55 pm 14:55 Partly Cloudy 87 30.7 70 21.3 57 57 S 15 24 29.78 1009 7 11.26538 0 0
3:15 pm 15:15 Partly Cloudy 88 31.3 71 21.5 56 56 S 14 22 29.77 1008 10 16.0934 0 0
3:35 pm 15:35 Partly Cloudy 89 31.8 71 21.7 55 55 S 13 20 29.77 1008 10 16.0934 0 0
3:55 pm 15:55 Partly Cloudy 89 31.9 71 21.6 54 54 S 15 24 29.76 1008 7 11.26538 0 0
4:15 pm 16:15 Mostly Cloudy with Haze 90 32.1 71 21.4 53 53 SSW 13 20 29.76 1008 2.5 4.02335 0 0
4:35 pm 16:35 Partly Cloudy 90 32.3 71 21.5 53 53 S 12 19 29.75 1007 10 16.0934 0 0
4:55 pm 16:55 Sunny 91 32.6 71 21.4 52 52 S 13 20 29.74 1007 10 16.0934 0 0
5:15 pm 17:15 Sunny 91 32.8 71 21.5 51 51 S 13 20 29.74 1007 10 16.0934 0 0
5:35 pm 17:35 Sunny 90 32.3 71 21.4 53 53 S 15 24 29.74 1007 10 16.0934 0 0
5:55 pm 17:55 Sunny 90 32.4 71 21.6 53 53 S 15 24 29.73 1007 10 16.0934 0 0
6:15 pm 18:15 Sunny 90 32.1 71 21.5 53 53 S 15 24 29.73 1007 10 16.0934 0 0
6:35 pm 18:35 Sunny 89 31.8 70 21.1 53 53 S 16 26 29.74 1007 10 16.0934 0 0
6:55 pm 18:55 Sunny 89 31.6 70 21.2 54 54 S 12 19 29.74 1007 10 16.0934 0 0
7:15 pm 19:15 Sunny 88 31 70 21.2 56 56 SSE 10 17 29.74 1007 10 16.0934 0 0
7:35 pm 19:35 Sunny 87 30.5 71 21.5 59 59 SSE 9 15 29.75 1007 10 16.0934 0 0
7:55 pm 19:55 Sunny 86 29.8 70 21.3 60 60 SE 6 9 29.77 1008 10 16.0934 0 0
8:15 pm 20:15 Sunny 85 29.2 70 21.1 62 62 SE 7 11 29.8 1009 10 16.0934 0 0
8:35 pm 20:35 Sunny 84 28.7 70 21.3 64 64 SE 5 7 29.81 1009 10 16.0934 0 0
8:55 pm 20:55 Clear 83 28.2 71 21.6 67 67 SE 9 15 29.81 1010 10 16.0934 0 0
9:15 pm 21:15 Clear 82 27.6 71 21.5 69 69 SSE 10 17 29.81 1009 10 16.0934 0 0
9:35 pm 21:35 Clear 79 26.3 71 21.6 75 75 SE 9 15 29.83 1010 10 16.0934 0 0
9:55 pm 21:55 Clear 80 26.5 70 21.3 73 73 SE 12 19 29.83 1010 10 16.0934 0 0
10:15 pm 22:15 Clear 78 25.6 70 21.2 77 77 SSE 12 19 29.83 1010 10 16.0934 0 0
10:35 pm 22:35 Clear 77 25.1 70 21 78 78 SSE 9 15 29.84 1010 10 16.0934 0 0
10:55 pm 22:55 Clear 77 24.8 69 20.5 77 77 SSE 9 15 29.84 1011 10 16.0934 0 0
11:15 pm 23:15 Clear 76 24.5 68 20.1 77 77 SSE 10 17 29.83 1010 10 16.0934 0 0
11:35 pm 23:35 Clear 75 24 67 19.5 76 76 SE 10 17 29.85 1011 10 16.0934 0 0
11:55 pm 23:55 Clear 74 23.3 67 19.5 79 79 SSE 9 15 29.85 1011 10 16.0934 0 0

Powered by AerisWeather